Elmendorf AFB, AK

11:16 AM AKST on November 17, 2017 (GMT -0900)
Elmendorf Air Force Base

Weather History for PAED - January, 2013

Change the Weather History Date:

Thursday, January 24, 2013

  Actual Average Record
Temperature  
Mean Temperature 30 °F -  
Max Temperature 39 °F 16 °F 49 °F (1977)
Min Temperature 21 °F 4 °F -36 °F (2006)
Degree Days  
Heating Degree Days 35    
Moisture  
Dew Point 24 °F    
Average Humidity 79    
Maximum Humidity 97    
Minimum Humidity 52    
Precipitation  
Precipitation 0.00 in - - ()
Sea Level Pressure  
Sea Level Pressure 29.44 in    
Wind  
Wind Speed 4 mph (West)    
Max Wind Speed 12 mph    
Max Gust Speed -    
Visibility 10 miles    
Events      
Averages and records for this station are not official NWS values.
T = Trace of Precipitation, MM = Missing Value Source: NWS Daily Summary

Daily Weather History Graph

Daily Weather History Graph

Search for Another Location

Airport or City:

Trip Planner

Search our weather history database for the weather conditions in past years. The results will help you decide how hot, cold, wet, or windy it might be!

Date:

Astronomy

Jan. 24, 2013 Rise Set
Actual Time 9:37 AM AKST 4:45 PM AKST
Civil Twilight 8:45 AM AKST 5:38 PM AKST
Nautical Twilight 7:50 AM AKST 6:32 PM AKST
Astronomical Twilight 6:59 AM AKST 7:23 PM AKST
Moon 2:46 PM AKST (1/24) 7:54 AM AKST (1/24)
Length of Visible Light 8h 52m
Length of Day
7h 07m
Waxing Gibbous, 95% of the Moon is Illuminated
Jan 24
Waxing Gibbous
Jan 26
Full
Feb 3
Last Quarter
Feb 9
New
Feb 17
First Quarter

Hourly Weather History & Observations

Time (AKST) Temp. Windchill Dew Point Humidity Pressure Visibility Wind Dir Wind Speed Gust Speed Precip Events Conditions
12:55 AM 24.8 °F 20.5 °F 24.1 °F 97% 29.38 in 10.0 mi Variable 3.5 mph - N/A   Mostly Cloudy
1:55 AM 21.0 °F - 19.6 °F 94% 29.40 in 10.0 mi Calm Calm - N/A   Partly Cloudy
2:55 AM 23.0 °F 14.7 °F 21.9 °F 96% 29.40 in 10.0 mi East 6.9 mph - N/A   Overcast
3:55 AM 24.3 °F 17.3 °F 22.3 °F 92% 29.41 in 10.0 mi NE 5.8 mph - N/A   Overcast
4:55 AM 24.6 °F - 21.2 °F 87% 29.42 in 10.0 mi Calm Calm - N/A   Overcast
5:55 AM 23.5 °F - 20.8 °F 89% 29.43 in 10.0 mi Calm Calm - N/A   Overcast
6:55 AM 23.0 °F - 20.7 °F 91% 29.44 in 10.0 mi Calm Calm - N/A   Overcast
7:55 AM 23.5 °F 17.6 °F 20.8 °F 89% 29.44 in 10.0 mi ENE 4.6 mph - N/A   Overcast
8:55 AM 24.4 °F - 21.2 °F 87% 29.46 in 10.0 mi Calm Calm - N/A   Overcast
9:55 AM 22.3 °F 13.9 °F 19.2 °F 88% 29.47 in 10.0 mi East 6.9 mph - N/A   Overcast
10:55 AM 22.5 °F 17.8 °F 19.2 °F 87% 29.48 in 10.0 mi East 3.5 mph - N/A   Clear
11:55 AM 31.1 °F - 27.0 °F 85% 29.48 in 9.0 mi Calm Calm - N/A   Clear
12:55 PM 33.4 °F 30.4 °F 24.3 °F 69% 29.48 in 10.0 mi Variable 3.5 mph - N/A   Partly Cloudy
1:55 PM 38.7 °F 33.6 °F 23.9 °F 55% 29.47 in 10.0 mi WSW 6.9 mph - N/A   Partly Cloudy
2:55 PM 39.9 °F 37.8 °F 23.5 °F 52% 29.47 in 10.0 mi WSW 3.5 mph - N/A   Partly Cloudy
3:55 PM 36.5 °F 31.8 °F 24.8 °F 63% 29.46 in 10.0 mi WNW 5.8 mph - N/A   Partly Cloudy
4:55 PM 35.1 °F 30.1 °F 25.9 °F 69% 29.45 in 10.0 mi WNW 5.8 mph - N/A   Scattered Clouds
5:55 PM 34.0 °F - 25.9 °F 72% 29.45 in 10.0 mi Calm Calm - N/A   Mostly Cloudy
6:55 PM 32.2 °F - 26.1 °F 78% 29.44 in 10.0 mi Calm Calm - N/A   Overcast
7:55 PM 34.5 °F - 26.1 °F 71% 29.43 in 10.0 mi Calm Calm - N/A   Overcast
8:55 PM 34.7 °F 28.8 °F 24.8 °F 67% 29.42 in 10.0 mi West 6.9 mph - N/A   Overcast
9:55 PM 33.8 °F 25.8 °F 28.4 °F 81% 29.41 in 10.0 mi West 10.4 mph - N/A   Overcast
10:55 PM 36.0 °F 28.0 °F 26.6 °F 69% 29.40 in 10.0 mi West 11.5 mph - N/A   Overcast
11:55 PM 36.0 °F 28.5 °F 26.2 °F 68% 29.38 in 10.0 mi WSW 10.4 mph - N/A   Overcast